Zurück zum Katalog

SL-24 DEB

AktivSSO
NORAD 36601·DEBRIS·🇷🇺 Russia

Gestartet Jun 15, 2010 von Dombarovsky

Loading…

Nächste Überflüge (nächste 24 Stunden)

TLE

AktuellSource: Space-Track

Epoche: Sep 14, 2026, 12:23 UTC

1 36601U 10028D   26257.51630742  .00000307  00000-0  86816-4 0  9990
2 36601  98.2967  97.3699 0018227 101.3728 258.9517 14.52015324858818

Verfolge SL-24 DEB in Echtzeit mit AllMySat

Download on the App Store